This demonstration page uses our WeatherBlox Daily Observations layout. Learn more.

Hourly Observations for January 25, 2018

Temp ( °F °C ) Dew Point ( °F °C ) Humidity (%) Winds ( mph kmh ) Pressure ( in mb ) Visibility ( mi km ) Precip ( " mm )
12:15 am 00:15 Clear 32 0 28 -2.3 85 85 Calm 30.21 1023 10 16.0934 0 0
12:35 am 00:35 Clear 32 0.2 28 -2.1 85 85 WSW 3 6 30.15 1021 10 16.0934 0 0
12:55 am 00:55 Clear 31 -0.3 27 -2.8 83 83 W 3 6 30.18 1022 10 16.0934 0 0
1:15 am 01:15 Clear 31 -0.7 27 -2.7 87 87 WSW 3 6 30.18 1022 10 16.0934 0 0
1:35 am 01:35 Clear 29 -1.4 26 -3.1 88 88 W 5 7 30.18 1022 10 16.0934 0 0
1:55 am 01:55 Clear 31 -0.7 27 -3 85 85 W 6 9 30.18 1022 10 16.0934 0 0
2:15 am 02:15 Clear 28 -2 26 -3.6 89 89 W 3 6 30.18 1022 10 16.0934 0 0
2:35 am 02:35 Clear 28 -2.1 25 -3.8 88 88 W 7 11 30.18 1022 10 16.0934 0 0
2:55 am 02:55 Clear 28 -2.1 25 -3.9 88 88 WNW 5 7 30.18 1022 10 16.0934 0 0
3:15 am 03:15 Clear 26 -3.2 23 -4.8 89 89 NW 3 6 30.21 1023 10 16.0934 0 0
3:35 am 03:35 Clear 26 -3.5 23 -5 89 89 Calm 30.18 1022 10 16.0934 0 0
3:55 am 03:55 Clear 27 -3 24 -4.2 92 92 Calm 30.15 1021 10 16.0934 0 0
4:15 am 04:15 Clear 27 -2.6 25 -4.1 90 90 NW 5 7 30.15 1021 10 16.0934 0 0
4:35 am 04:35 Clear 26 -3.2 24 -4.7 90 90 Calm 30.18 1022 10 16.0934 0 0
4:55 am 04:55 Clear 27 -3 25 -4.1 92 92 S 5 7 30.15 1021 10 16.0934 0 0
5:15 am 05:15 Clear 26 -3.1 24 -4.4 91 91 S 7 11 30.15 1021 10 16.0934 0 0
5:35 am 05:35 Clear 26 -3.1 24 -4.3 92 92 S 5 7 30.12 1020 10 16.0934 0 0
5:55 am 05:55 Clear 26 -3.2 24 -4.5 91 91 Calm 30.12 1020 10 16.0934 0 0
6:15 am 06:15 Clear 26 -3.5 24 -4.6 92 92 S 5 7 30.15 1021 10 16.0934 0 0
6:35 am 06:35 Clear 24 -4.3 23 -5.2 94 94 SSW 5 7 30.15 1021 10 16.0934 0 0
6:55 am 06:55 Clear 25 -4 23 -5 93 93 SSW 6 9 30.15 1021 10 16.0934 0 0
7:15 am 07:15 Clear 24 -4.5 22 -5.5 93 93 SW 3 6 30.15 1021 10 16.0934 0 0
7:35 am 07:35 Clear 24 -4.7 22 -5.8 92 92 SW 6 9 30.15 1021 10 16.0934 0 0
7:55 am 07:55 Sunny 24 -4.7 21 -5.9 91 91 WSW 5 7 30.15 1021 10 16.0934 0 0
8:15 am 08:15 Sunny 24 -4.7 22 -5.8 92 92 Calm 30.15 1021 10 16.0934 0 0
8:35 am 08:35 Sunny 24 -4.2 22 -5.3 92 92 WSW 3 6 30.15 1021 10 16.0934 0 0
8:55 am 08:55 Sunny 28 -2.1 25 -3.7 89 89 WSW 3 6 30.12 1020 10 16.0934 0 0
9:15 am 09:15 Sunny 29 -1.4 26 -3.5 86 86 SW 7 11 30.12 1020 10 16.0934 0 0
9:35 am 09:35 Sunny 31 -0.5 27 -3 83 83 Calm 30.12 1020 10 16.0934 0 0
9:55 am 09:55 Sunny 33 0.8 28 -2 82 82 SW 5 7 30.09 1019 10 16.0934 0 0
10:15 am 10:15 Sunny 36 2.2 30 -1.3 78 78 Calm 30.09 1019 10 16.0934 0 0
10:35 am 10:35 Sunny 38 3.1 31 -0.4 78 78 SSW 3 6 30.06 1018 10 16.0934 0 0
10:55 am 10:55 Sunny 40 4.6 32 -0.1 72 72 Calm 30.03 1017 10 16.0934 0 0
11:15 am 11:15 Sunny 43 6.2 32 0 65 65 S 5 7 30 1016 10 16.0934 0 0
11:35 am 11:35 Sunny 45 7.4 35 1.6 67 67 SSW 3 6 30 1016 10 16.0934 0 0
11:55 am 11:55 Sunny 46 8 32 -0.1 57 57 S 6 9 30 1016 10 16.0934 0 0
12:15 pm 12:15 Sunny 47 8.5 31 -0.4 54 54 S 7 11 29.97 1015 10 16.0934 0 0
12:35 pm 12:35 Sunny 48 8.7 32 -0.1 54 54 S 6 9 29.94 1014 10 16.0934 0 0
12:55 pm 12:55 Sunny 49 9.2 32 -0.2 52 52 S 5 7 29.91 1013 10 16.0934 0 0
1:15 pm 13:15 Sunny 50 10 33 0.8 53 53 S 6 9 29.88 1012 10 16.0934 0 0
1:35 pm 13:35 Sunny 51 10.8 32 0 48 48 S 9 15 29.88 1012 10 16.0934 0 0
1:55 pm 13:55 Sunny 52 10.9 32 0.1 48 48 S 14 22 29.88 1012 10 16.0934 0 0
2:15 pm 14:15 Sunny 51 10.6 32 0.2 49 49 S 10 17 29.85 1011 10 16.0934 0 0
2:35 pm 14:35 Sunny 52 11 32 0 47 47 S 16 26 29.85 1011 10 16.0934 0 0
2:55 pm 14:55 Sunny 49 9.6 30 -0.9 48 48 S 15 24 29.85 1011 10 16.0934 0 0
3:15 pm 15:15 Sunny 49 9.2 30 -1.3 48 48 S 17 28 29.85 1011 10 16.0934 0 0
3:35 pm 15:35 Sunny 49 9.5 31 -0.4 50 50 S 15 24 29.83 1010 10 16.0934 0 0
3:55 pm 15:55 Sunny 49 9.6 31 -0.5 50 50 S 14 22 29.83 1010 10 16.0934 0 0
4:15 pm 16:15 Sunny 49 9.5 31 -0.4 50 50 S 12 19 29.83 1010 10 16.0934 0 0
4:35 pm 16:35 Sunny 49 9.3 32 0 53 53 S 13 20 29.83 1010 10 16.0934 0 0
4:55 pm 16:55 Sunny 49 9.3 31 -0.3 51 51 S 12 19 29.8 1009 10 16.0934 0 0
5:15 pm 17:15 Sunny 47 8.6 31 -0.8 52 52 S 9 15 29.8 1009 10 16.0934 0 0
5:35 pm 17:35 Sunny 43 6.3 30 -1.2 59 59 SSE 8 13 29.83 1010 10 16.0934 0 0
5:55 pm 17:55 Clear 41 5 29 -1.5 63 63 SSE 8 13 29.83 1010 10 16.0934 0 0
6:15 pm 18:15 Clear 40 4.5 28 -2 63 63 SSE 7 11 29.83 1010 10 16.0934 0 0
6:35 pm 18:35 Clear 47 8.1 28 -2.5 47 47 S 18 30 29.8 1009 10 16.0934 0 0
6:55 pm 18:55 Clear 46 7.5 27 -2.6 49 49 S 13 20 29.8 1009 10 16.0934 0 0
7:15 pm 19:15 Clear 45 7 27 -3 49 49 S 14 22 29.83 1010 10 16.0934 0 0
7:35 pm 19:35 Clear 43 6.1 26 -3.2 52 52 S 13 20 29.83 1010 10 16.0934 0 0
7:55 pm 19:55 Clear 43 6.2 26 -3.3 51 51 S 14 22 29.83 1010 10 16.0934 0 0
8:15 pm 20:15 Clear 45 7 26 -3.5 48 48 S 18 30 29.83 1010 10 16.0934 0 0
8:35 pm 20:35 Clear 46 7.6 26 -3.5 46 46 S 21 33 29.8 1009 10 16.0934 0 0
8:55 pm 20:55 Clear 46 8 26 -3.1 46 46 S 23 37 29.8 1009 10 16.0934 0 0
9:15 pm 21:15 Clear 46 8 27 -2.9 46 46 S 20 31 29.8 1009 10 16.0934 0 0
9:35 pm 21:35 Clear 46 7.6 27 -3 47 47 S 21 33 29.8 1009 10 16.0934 0 0
9:55 pm 21:55 Clear 46 7.7 26 -3.4 46 46 S 21 33 29.8 1009 10 16.0934 0 0
10:15 pm 22:15 Clear 46 7.7 25 -3.7 45 45 S 23 37 29.77 1008 10 16.0934 0 0
10:35 pm 22:35 Clear 46 8 24 -4.3 42 42 S 23 37 29.77 1008 10 16.0934 0 0
10:55 pm 22:55 Clear 46 7.6 24 -4.5 42 42 S 24 39 29.77 1008 10 16.0934 0 0
11:15 pm 23:15 Clear 45 7 24 -4.2 45 45 S 23 37 29.77 1008 10 16.0934 0 0
11:35 pm 23:35 Clear 44 6.5 24 -4.2 47 47 S 22 35 29.8 1009 10 16.0934 0 0
11:55 pm 23:55 Clear 43 6.1 24 -4.2 48 48 S 21 33 29.8 1009 10 16.0934 0 0

Powered by AerisWeather